When you browse on this site, cookies collect data to enhance your experience and personalize the content and advertising you see.
Visit our Privacy Policy to learn more. By continuing to use the site, you agree to this use of cookies and data.
  • In United Kingdom
  • List of Countries
  • For 7 days
  • Water Temperature
  • Satellite Maps
  • Weather Map
  • Weather Widgets
  • user-avatar
    Login

    Hourly Weather Mutare

    Today, 25 March, Monday

    Time Temperature Precipitation Wind Pressure Humidity
    00:00 +16°C° 0 mm 0 mps 653 mmHg 98%
    01:00 +16°C° 0 mm 0 mps 653 mmHg 98%
    02:00 +15°C° 0 mm 0 mps 652 mmHg 98%
    03:00 +15°C° 0 mm 0 mps 652 mmHg 98%
    04:00 +15°C° 0 mm 0 mps 652 mmHg 98%
    05:00 +14°C° 0 mm 0 mps 652 mmHg 98%
    06:00 +16°C° 0 mm 0 mps 652 mmHg 93%
    07:00 +17°C° 0 mm 0 mps 653 mmHg 88%
    08:00 +19°C° 0 mm 0 mps 654 mmHg 82%
    09:00 +22°C° 0 mm 0 mps 654 mmHg 73%
    10:00 +26°C° 0 mm 1 mps 655 mmHg 63%
    11:00 +28°C° 0 mm 1 mps 655 mmHg 54%
    12:00 +28°C° 0 mm 1 mps 655 mmHg 52%
    13:00 +28°C° 0 mm 1 mps 654 mmHg 50%
    14:00 +29°C° 0 mm 1 mps 653 mmHg 48%
    15:00 +28°C° 0 mm 1 mps 653 mmHg 54%
    16:00 +27°C° 0 mm 1 mps 652 mmHg 60%
    17:00 +26°C° 0 mm 1 mps 652 mmHg 65%
    18:00 +24°C° 0 mm 1 mps 652 mmHg 73%
    19:00 +21°C° 0 mm 1 mps 651 mmHg 81%
    20:00 +19°C° 0 mm 1 mps 651 mmHg 88%
    21:00 +19°C° 0 mm 1 mps 651 mmHg 91%
    22:00 +17°C° 0 mm 0 mps 652 mmHg 93%
    23:00 +16°C° 0 mm 0 mps 652 mmHg 95%

    Tomorrow, 26 March, Tuesday

    Time Temperature Precipitation Wind Pressure Humidity
    00:00 +18°C° 0 mm 1 mps 652 mmHg 95%
    01:00 +18°C° 0 mm 1 mps 651 mmHg 95%
    02:00 +16°C° 0 mm 1 mps 651 mmHg 95%
    03:00 +16°C° 0 mm 1 mps 651 mmHg 94%
    04:00 +16°C° 0 mm 1 mps 651 mmHg 93%
    05:00 +16°C° 0 mm 1 mps 651 mmHg 92%
    06:00 +19°C° 0 mm 1 mps 652 mmHg 84%
    07:00 +19°C° 0 mm 0 mps 653 mmHg 77%
    08:00 +21°C° 0 mm 0 mps 654 mmHg 69%
    09:00 +25°C° 0 mm 1 mps 654 mmHg 61%
    10:00 +26°C° 0 mm 1 mps 655 mmHg 53%
    11:00 +28°C° 0 mm 2 mps 656 mmHg 45%
    12:00 +28°C° 0 mm 2 mps 655 mmHg 45%
    13:00 +28°C° 0 mm 3 mps 655 mmHg 46%
    14:00 +29°C° 0 mm 3 mps 655 mmHg 47%
    15:00 +27°C° 0 mm 3 mps 654 mmHg 54%
    16:00 +26°C° 0 mm 2 mps 654 mmHg 62%
    17:00 +25°C° 0 mm 2 mps 654 mmHg 69%
    18:00 +23°C° 0 mm 2 mps 654 mmHg 78%
    19:00 +21°C° 0 mm 1 mps 654 mmHg 86%
    20:00 +19°C° 0 mm 1 mps 654 mmHg 95%
    21:00 +19°C° 0 mm 1 mps 655 mmHg 96%
    22:00 +19°C° 0 mm 1 mps 655 mmHg 97%
    23:00 +19°C° 0 mm 1 mps 656 mmHg 98%

    Day after tomorrow, 27 March, Wednesday

    Time Temperature Precipitation Wind Pressure Humidity
    00:00 +18°C° 0 mm 1 mps 655 mmHg 98%
    01:00 +18°C° 0 mm 1 mps 655 mmHg 98%
    02:00 +18°C° 0 mm 1 mps 655 mmHg 98%
    03:00 +18°C° 0.1 mm 1 mps 655 mmHg 98%
    04:00 +18°C° 0.1 mm 1 mps 655 mmHg 98%
    05:00 +18°C° 0.1 mm 1 mps 655 mmHg 98%
    06:00 +19°C° 0 mm 1 mps 656 mmHg 95%
    07:00 +20°C° 0 mm 1 mps 656 mmHg 92%
    08:00 +20°C° 0 mm 1 mps 657 mmHg 88%
    09:00 +21°C° 0.1 mm 1 mps 657 mmHg 83%
    10:00 +22°C° 0.1 mm 1 mps 658 mmHg 78%
    11:00 +23°C° 0.1 mm 2 mps 658 mmHg 73%
    12:00 +25°C° 0.1 mm 2 mps 658 mmHg 67%
    13:00 +26°C° 0.1 mm 2 mps 658 mmHg 62%
    14:00 +27°C° 0.1 mm 2 mps 657 mmHg 57%
    15:00 +25°C° 0.4 mm 2 mps 657 mmHg 64%
    16:00 +24°C° 0.4 mm 2 mps 656 mmHg 72%
    17:00 +23°C° 0.4 mm 2 mps 656 mmHg 80%
    18:00 +21°C° 0.2 mm 1 mps 656 mmHg 85%
    19:00 +20°C° 0.2 mm 1 mps 656 mmHg 91%
    20:00 +18°C° 0.2 mm 1 mps 656 mmHg 97%
    21:00 +18°C° 0 mm 1 mps 657 mmHg 97%
    22:00 +18°C° 0 mm 1 mps 657 mmHg 98%
    23:00 +18°C° 0 mm 1 mps 657 mmHg 98%

    28 March, Thursday

    Time Temperature Precipitation Wind Pressure Humidity
    00:00 +18°C° 0 mm 1 mps 656 mmHg 98%
    01:00 +18°C° 0 mm 1 mps 656 mmHg 98%
    02:00 +18°C° 0 mm 1 mps 655 mmHg 98%
    03:00 +18°C° 0 mm 1 mps 655 mmHg 98%
    04:00 +16°C° 0 mm 0 mps 655 mmHg 98%
    05:00 +15°C° 0 mm 0 mps 655 mmHg 98%
    06:00 +16°C° 0 mm 0 mps 656 mmHg 94%
    07:00 +17°C° 0 mm 0 mps 657 mmHg 89%
    08:00 +18°C° 0 mm 0 mps 657 mmHg 85%
    09:00 +22°C° 0 mm 1 mps 657 mmHg 74%
    10:00 +24°C° 0 mm 1 mps 658 mmHg 63%
    11:00 +26°C° 0 mm 1 mps 658 mmHg 52%
    12:00 +27°C° 0 mm 1 mps 657 mmHg 50%
    13:00 +27°C° 0 mm 2 mps 656 mmHg 48%
    14:00 +28°C° 0 mm 2 mps 656 mmHg 46%
    15:00 +27°C° 0 mm 2 mps 655 mmHg 52%
    16:00 +26°C° 0 mm 1 mps 655 mmHg 58%
    17:00 +25°C° 0 mm 1 mps 654 mmHg 64%
    18:00 +23°C° 0 mm 1 mps 654 mmHg 72%
    19:00 +20°C° 0 mm 1 mps 654 mmHg 81%
    20:00 +18°C° 0 mm 1 mps 654 mmHg 89%
    21:00 +18°C° 0 mm 1 mps 654 mmHg 90%
    22:00 +18°C° 0 mm 1 mps 653 mmHg 92%
    23:00 +16°C° 0 mm 1 mps 653 mmHg 94%

    29 March, Friday

    Time Temperature Precipitation Wind Pressure Humidity
    00:00 +16°C° 0 mm 1 mps 653 mmHg 94%
    01:00 +16°C° 0 mm 1 mps 653 mmHg 94%
    02:00 +16°C° 0 mm 1 mps 652 mmHg 93%
    03:00 +15°C° 0 mm 1 mps 652 mmHg 93%
    04:00 +15°C° 0 mm 1 mps 652 mmHg 92%
    05:00 +15°C° 0 mm 1 mps 652 mmHg 92%
    06:00 +18°C° 0 mm 1 mps 653 mmHg 84%
    07:00 +20°C° 0 mm 1 mps 654 mmHg 76%
    08:00 +22°C° 0 mm 1 mps 654 mmHg 69%
    09:00 +24°C° 0 mm 1 mps 655 mmHg 61%
    10:00 +27°C° 0 mm 1 mps 655 mmHg 54%
    11:00 +29°C° 0 mm 1 mps 655 mmHg 46%
    12:00 +29°C° 0 mm 1 mps 655 mmHg 43%
    13:00 +30°C° 0 mm 1 mps 654 mmHg 41%
    14:00 +30°C° 0 mm 1 mps 654 mmHg 38%
    15:00 +29°C° 0 mm 1 mps 653 mmHg 45%
    16:00 +28°C° 0 mm 1 mps 653 mmHg 52%
    17:00 +27°C° 0 mm 1 mps 652 mmHg 59%
    18:00 +24°C° 0 mm 1 mps 652 mmHg 67%
    19:00 +22°C° 0 mm 1 mps 652 mmHg 76%
    20:00 +20°C° 0 mm 1 mps 652 mmHg 85%
    21:00 +20°C° 0 mm 1 mps 652 mmHg 88%
    22:00 +19°C° 0 mm 1 mps 652 mmHg 91%
    23:00 +19°C° 0 mm 1 mps 652 mmHg 94%

    30 March, Saturday

    Time Temperature Precipitation Wind Pressure Humidity
    00:00 +19°C° 0 mm 1 mps 652 mmHg 95%
    01:00 +18°C° 0 mm 1 mps 652 mmHg 96%
    02:00 +18°C° 0 mm 1 mps 652 mmHg 97%
    03:00 +16°C° 0 mm 0 mps 652 mmHg 97%
    04:00 +16°C° 0 mm 0 mps 652 mmHg 97%
    05:00 +16°C° 0 mm 0 mps 653 mmHg 97%
    06:00 +17°C° 0 mm 0 mps 653 mmHg 93%
    07:00 +18°C° 0 mm 0 mps 654 mmHg 88%
    08:00 +19°C° 0 mm 0 mps 655 mmHg 83%
    09:00 +22°C° 0.1 mm 1 mps 655 mmHg 79%
    10:00 +23°C° 0.1 mm 1 mps 655 mmHg 74%
    11:00 +24°C° 0.1 mm 1 mps 656 mmHg 69%
    12:00 +25°C° 0.1 mm 1 mps 655 mmHg 69%
    13:00 +25°C° 0.1 mm 1 mps 654 mmHg 68%
    14:00 +25°C° 0.1 mm 1 mps 654 mmHg 67%
    15:00 +25°C° 0 mm 1 mps 653 mmHg 69%
    16:00 +24°C° 0 mm 1 mps 653 mmHg 71%
    17:00 +24°C° 0 mm 1 mps 653 mmHg 73%
    18:00 +22°C° 0 mm 1 mps 653 mmHg 80%
    19:00 +18°C° 0 mm 0 mps 653 mmHg 87%
    20:00 +16°C° 0 mm 0 mps 653 mmHg 94%
    21:00 +16°C° 0 mm 0 mps 653 mmHg 95%
    22:00 +16°C° 0 mm 0 mps 653 mmHg 96%
    23:00 +16°C° 0 mm 0 mps 653 mmHg 97%
    Show more